This demonstration page uses our WeatherBlox Daily Observations layout. Learn more.

Left ArrowRight Arrow

34.16533, -84.80231

Hourly Observations for February 27, 2015

Temp ( °F °C ) Dew Point ( °F °C ) Humidity (%) Winds ( mph kmh ) Pressure ( in mb ) Visibility ( mi km ) Precip ( " mm )
12:24 am 00:24 Clear with Mist and Fog 27 -2.8 25 -3.9 92 92 Calm 30.24 1024 3 4 0.00 0.00
12:39 am 00:39 Clear with Mist and Fog 27 -2.8 26 -3.3 96 96 Calm 30.24 1024 2 2 0.00 0.00
12:46 am 00:46 Clear with Mist and Fog 29 -1.7 27 -2.8 92 92 Calm 30.24 1024 3 5 0.00 0.00
12:53 am 00:53 Clear with Mist and Fog 29 -1.7 27 -2.8 92 92 Calm 30.22 1023 5 8 0.00 0.00
1:20 am 01:20 Clear with Mist and Fog 28 -2.2 26 -3.3 92 92 Calm 30.24 1024 3 4 0.00 0.00
1:30 am 01:30 Clear with Mist and Fog 27 -2.8 26 -3.3 96 96 Calm 30.24 1024 3 5 0.00 0.00
1:53 am 01:53 Clear with Mist and Fog 27 -2.8 25 -3.9 92 92 Calm 30.22 1023 3 5 0.00 0.00
2:53 am 02:53 Clear with Mist and Fog 27 -2.8 24 -4.4 89 89 Calm 30.26 1025 5 8 0.00 0.00
3:53 am 03:53 Clear with Mist and Fog 27 -2.8 24 -4.4 89 89 Calm 30.26 1025 5 8 0.00 0.00
4:53 am 04:53 Clear with Mist and Fog 27 -2.8 24 -4.4 89 89 Calm 30.29 1026 6 10 0.00 0.00
5:53 am 05:53 Clear 28 -2.2 22 -5.6 78 78 N 3 6 30.32 1027 8 13 0.00 0.00
6:53 am 06:53 Clear 27 -2.8 22 -5.6 81 81 Calm 30.36 1028 8 13 0.00 0.00
7:53 am 07:53 Sunny 28 -2.2 22 -5.6 78 78 VRB 3 6 30.39 1029 7 11 0.00 0.00
8:43 am 08:43 Mostly Cloudy 30 -1.1 23 -5 75 75 N 8 13 30.45 1031 8 13 0.00 0.00
8:53 am 08:53 Mostly Cloudy 30 -1.1 22 -5.6 72 72 N 15 24 30.42 1030 9 14 0.00 0.00
9:01 am 09:01 Partly Cloudy 31 -0.6 22 -5.6 69 69 N 13 20 30.45 1031 10 16 0.00 0.00
9:53 am 09:53 Mostly Sunny 32 0 20 -6.7 61 61 N 13 20 30.44 1031 10 16 0.00 0.00
10:53 am 10:53 Sunny 34 1.1 20 -6.7 56 56 N 8 13 30.45 1031 10 16 0.00 0.00
11:53 am 11:53 Sunny 35 1.7 21 -6.1 57 57 VRB 7 11 30.45 1031 10 16 0.00 0.00
12:53 pm 12:53 Sunny 37 2.8 21 -6.1 52 52 N 6 9 30.44 1031 10 16 0.00 0.00
1:53 pm 13:53 Sunny 39 3.9 22 -5.6 50 50 N 8 13 30.42 1030 10 16 0.00 0.00
2:53 pm 14:53 Sunny 41 5 22 -5.6 47 47 N 8 13 30.41 1030 10 16 0.00 0.00
3:53 pm 15:53 Sunny 41 5 19 -7.2 41 41 N 8 13 30.42 1030 10 16 0.00 0.00
4:53 pm 16:53 Sunny 41 5 18 -7.8 39 39 VRB 5 7 30.41 1030 10 16 0.00 0.00
5:53 pm 17:53 Sunny 39 3.9 18 -7.8 43 43 NNW 7 11 30.41 1030 10 16 0.00 0.00
6:53 pm 18:53 Clear 36 2.2 17 -8.3 46 46 Calm 30.43 1031 10 16 0.00 0.00
7:53 pm 19:53 Clear 33 0.6 17 -8.3 52 52 VRB 5 7 30.45 1031 10 16 0.00 0.00
8:53 pm 20:53 Clear 33 0.6 17 -8.3 52 52 N 5 7 30.46 1031 10 16 0.00 0.00
9:53 pm 21:53 Clear 32 0 17 -8.3 54 54 N 3 6 30.48 1032 10 16 0.00 0.00
10:53 pm 22:53 Clear 32 0 18 -7.8 56 56 N 6 9 30.48 1032 10 16 0.00 0.00
11:53 pm 23:53 Clear 32 0 18 -7.8 56 56 VRB 3 6 30.49 1032 10 16 0.00 0.00

Powered by AerisWeather